Location: Hengforden
(52.3167°N, 6.1333°E)
Time: 16:33:53
(UTC+00:00)

Cosmos 2233 Rocket - Pass Details

Date: 14 June 2025
Orbit: 953 x 989 km, 82.9° (Epoch: 19 July)

Event Time Altitude Azimuth Distance (km) Brightness Sun altitude
Rises 21:34:58 0° 349° (N) 3,706 8.7 -9.9°
Reaches altitude 10° 21:37:30 10° 350° (N) 2,757 7.7 -10.1°
Maximum altitude 21:43:51 87° 79° (E) 998 4.1 -10.5°
Enters shadow 21:49:39 13° 170° (S) 2,546 5.6 -10.9°
